Date String (YYYY-MM-DD hh:mm:ss) UTC,Instrument flags,absolute air pressure of the measurement (hPa),sample flow rate (lpm),inlet stack bypass flow (lpm),air temperature of the measurement (°C),ambient temperature measured by the external sensor (°C),aerosol sample conditioner tube jacket temperature (°C),OPC LED temperature (°C),internal box temperature (°C),relative humidity of the measurement (%),span deviation,mass concentration of particles derived from Lorenz-Mie calculation of OPC scattering (μg/m³),mass concentration of particles derived from Lorenz-Mie calculation of OPC scattering (μg/m³),mass concentration of particles derived from Lorenz-Mie calculation of OPC scattering (μg/m³)
DateTimeUTC,F1_M11,P_M11,Q1_M11,Q2_M11,T1_M11,T2_M11,T3_M11,T4_M11,T5_M11,U1_M11,ZSPAN_M11,X2_M11,X0_M11,X1_M11
2023-12-16 19:00:00,SystemResetWarning,0831.1,4.99,000.00,023.5,023.0,000.0,031.5,025.0,13.0,0000.0,0004.25,0008.87,0003.80
2023-12-16 19:01:00,SystemResetWarning,0831.1,5.00,000.00,023.5,023.0,000.0,031.5,025.0,12.9,0000.0,0004.30,0009.19,0003.83
2023-12-16 19:02:00,SystemResetWarning,0831.1,5.00,000.00,023.5,023.0,000.0,031.5,025.0,12.6,0000.0,0004.31,0009.70,0003.85
2023-12-16 19:03:00,SystemResetWarning,0831.1,4.99,000.00,023.5,023.0,000.0,031.5,025.0,12.4,0000.0,0004.30,0009.85,0003.86
2023-12-16 19:04:00,SystemResetWarning,0831.1,4.99,000.00,023.6,023.0,000.0,031.6,025.0,12.3,0000.0,0004.35,0009.92,0003.91
2023-12-16 19:05:00,SystemResetWarning,0831.1,5.01,000.00,023.6,023.0,000.0,031.6,025.0,12.6,0000.0,0004.36,0009.98,0003.91
2023-12-16 19:06:00,SystemResetWarning,0831.0,5.01,000.00,023.6,023.0,000.0,031.6,025.0,12.5,0000.0,0004.34,0009.80,0003.89
2023-12-16 19:07:00,SystemResetWarning,0831.1,4.99,000.00,023.6,023.0,000.0,031.6,025.0,12.4,0000.0,0004.32,0009.87,0003.86
2023-12-16 19:08:00,SystemResetWarning,0831.0,5.00,000.00,023.6,023.1,000.0,031.6,025.0,11.6,0000.0,0004.24,0009.68,0003.83
2023-12-16 19:09:00,SystemResetWarning,0831.1,5.01,000.00,023.7,023.1,000.0,031.7,025.1,11.4,0000.0,0004.21,0009.61,0003.82
2023-12-16 19:10:00,SystemResetWarning,0831.2,4.98,000.00,023.7,023.1,000.0,031.7,025.1,12.2,0000.0,0004.17,0009.15,0003.81
2023-12-16 19:11:00,SystemResetWarning,0831.1,5.00,000.00,023.7,023.2,000.0,031.7,025.1,12.3,0000.0,0004.11,0008.72,0003.76
2023-12-16 19:12:00,SystemResetWarning,0831.0,5.01,000.00,023.7,023.2,000.0,031.7,025.1,11.8,0000.0,0004.03,0008.33,0003.68
2023-12-16 19:13:00,SystemResetWarning,0831.0,5.01,000.00,023.7,023.2,000.0,031.7,025.2,12.0,0000.0,0003.98,0007.76,0003.61
2023-12-16 19:14:00,SystemResetWarning,0831.0,5.00,000.00,023.8,023.2,000.0,031.8,025.1,11.5,0000.0,0003.95,0007.50,0003.57
2023-12-16 19:15:00,SystemResetWarning,0830.9,5.00,000.00,023.8,023.2,000.0,031.8,025.2,11.9,0000.0,0003.89,0007.47,0003.51
2023-12-16 19:16:00,SystemResetWarning,0830.9,5.00,000.00,023.8,023.2,000.0,031.8,025.2,12.1,0000.0,0003.84,0007.73,0003.45
2023-12-16 19:17:00,SystemResetWarning,0830.9,5.00,000.00,023.8,023.2,000.0,031.8,025.2,12.2,0000.0,0003.79,0007.85,0003.41
2023-12-16 19:18:00,SystemResetWarning,0830.9,5.00,000.00,023.8,023.2,000.0,031.8,025.2,12.0,0000.0,0003.73,0007.70,0003.36
2023-12-16 19:19:00,SystemResetWarning,0830.9,5.01,000.00,023.8,023.2,000.0,031.9,025.2,11.1,0000.0,0003.71,0007.68,0003.34
2023-12-16 19:20:00,SystemResetWarning,0830.8,5.00,000.00,023.8,023.2,000.0,031.9,025.2,12.3,0000.0,0003.69,0007.50,0003.30
2023-12-16 19:21:00,SystemResetWarning,0830.9,5.00,000.00,023.8,023.2,000.0,031.9,025.2,12.2,0000.0,0003.68,0007.55,0003.28
2023-12-16 19:22:00,SystemResetWarning,0830.9,5.00,000.00,023.9,023.2,000.0,031.9,025.2,12.1,0000.0,0003.64,0006.78,0003.25
2023-12-16 19:23:00,SystemResetWarning,0830.8,5.01,000.00,023.9,023.2,000.0,031.9,025.2,11.9,0000.0,0003.64,0006.69,0003.27
2023-12-16 19:24:00,SystemResetWarning,0830.9,5.01,000.00,023.9,023.2,000.0,031.9,025.3,12.1,0000.0,0003.71,0006.90,0003.32
2023-12-16 19:25:00,SystemResetWarning,0830.9,5.00,000.00,023.9,023.3,000.0,032.0,025.3,12.7,0000.0,0003.70,0006.88,0003.33
2023-12-16 19:26:00,SystemResetWarning,0830.9,5.00,000.00,023.9,023.3,000.0,032.0,025.3,12.7,0000.0,0003.72,0006.82,0003.33
2023-12-16 19:27:00,SystemResetWarning,0830.8,5.00,000.00,023.9,023.3,000.0,032.0,025.3,12.6,0000.0,0003.72,0007.32,0003.35
2023-12-16 19:28:00,SystemResetWarning,0830.8,5.00,000.00,024.0,023.3,000.0,032.0,025.4,13.0,0000.0,0003.77,0007.43,0003.39
2023-12-16 19:29:00,SystemResetWarning,0830.9,4.99,000.00,024.0,023.3,000.0,032.0,025.4,12.7,0000.0,0003.87,0007.58,0003.47
2023-12-16 19:30:00,SystemResetWarning,0830.8,5.00,000.00,024.0,023.4,000.0,032.0,025.4,12.8,0000.0,0003.98,0007.77,0003.53
2023-12-16 19:31:00,SystemResetWarning,0830.8,5.00,000.00,024.0,023.4,000.0,032.1,025.4,13.0,0000.0,0004.06,0007.89,0003.60
2023-12-16 19:32:00,SystemResetWarning,0830.7,5.00,000.00,024.0,023.4,000.0,032.1,025.4,12.9,0000.0,0004.16,0008.00,0003.67
2023-12-16 19:33:00,SystemResetWarning,0830.7,5.00,000.00,024.1,023.4,000.0,032.1,025.4,11.5,0000.0,0004.28,0008.20,0003.77
2023-12-16 19:34:00,SystemResetWarning,0830.7,4.99,000.00,024.1,023.4,000.0,032.1,025.5,10.5,0000.0,0004.44,0008.48,0003.89
2023-12-16 19:35:00,SystemResetWarning,0830.7,5.01,000.00,024.1,023.5,000.0,032.1,025.5,10.6,0000.0,0004.57,0009.54,0003.99
2023-12-16 19:36:00,SystemResetWarning,0830.7,5.00,000.00,024.1,023.5,000.0,032.2,025.5,12.6,0000.0,0004.62,0010.16,0004.02
2023-12-16 19:37:00,SystemResetWarning,0830.7,5.01,000.00,024.1,023.5,000.0,032.2,025.5,12.7,0000.0,0004.56,0010.76,0003.97
2023-12-16 19:38:00,SystemResetWarning,0830.7,5.00,000.00,024.1,023.5,000.0,032.2,025.5,12.6,0000.0,0004.46,0010.21,0003.87
2023-12-16 19:39:00,SystemResetWarning,0830.7,5.00,000.00,024.2,023.5,000.0,032.2,025.6,12.6,0000.0,0004.40,0009.96,0003.82
2023-12-16 19:40:00,SystemResetWarning,0830.6,5.01,000.00,024.2,023.6,000.0,032.2,025.6,13.0,0000.0,0004.42,0010.13,0003.83
2023-12-16 19:41:00,SystemResetWarning,0830.6,5.00,000.00,024.2,023.6,000.0,032.2,025.6,12.6,0000.0,0004.45,0010.17,0003.86
2023-12-16 19:42:00,SystemResetWarning,0830.6,5.00,000.00,024.2,023.6,000.0,032.3,025.6,12.5,0000.0,0004.46,0010.17,0003.88
2023-12-16 19:43:00,SystemResetWarning,0830.5,5.00,000.00,024.2,023.6,000.0,032.3,025.7,12.5,0000.0,0004.44,0010.14,0003.88
2023-12-16 19:44:00,SystemResetWarning,0830.5,5.00,000.00,024.3,023.6,000.0,032.3,025.6,11.8,0000.0,0004.44,0010.27,0003.89
2023-12-16 19:45:00,SystemResetWarning,0830.4,5.00,000.00,024.3,023.6,000.0,032.3,025.6,11.9,0000.0,0004.40,0010.70,0003.89
2023-12-16 19:46:00,SystemResetWarning,0830.5,4.99,000.00,024.3,023.6,000.0,032.3,025.7,12.6,0000.0,0004.35,0010.24,0003.86
2023-12-16 19:47:00,SystemResetWarning,0830.4,5.00,000.00,024.3,023.6,000.0,032.3,025.7,12.9,0000.0,0004.33,0009.72,0003.85
2023-12-16 19:48:00,SystemResetWarning,0830.4,5.00,000.00,024.3,023.7,000.0,032.4,025.7,12.9,0000.0,0004.42,0009.60,0003.92
2023-12-16 19:49:00,SystemResetWarning,0830.4,5.01,000.00,024.3,023.7,000.0,032.4,025.7,12.7,0000.0,0004.56,0009.60,0004.08
2023-12-16 19:50:00,SystemResetWarning,0830.6,5.00,000.00,024.3,023.7,000.0,032.4,025.7,12.5,0000.0,0004.75,0009.92,0004.26
2023-12-16 19:51:00,SystemResetWarning,0830.5,5.01,000.00,024.4,023.7,000.0,032.4,025.7,12.4,0000.0,0004.85,0010.68,0004.32
2023-12-16 19:52:00,SystemResetWarning,0830.5,5.00,000.00,024.4,023.7,000.0,032.4,025.7,12.2,0000.0,0004.89,0010.85,0004.36
2023-12-16 19:53:00,SystemResetWarning,0830.4,5.00,000.00,024.4,023.7,000.0,032.5,025.8,12.5,0000.0,0004.95,0011.16,0004.43
2023-12-16 19:54:00,SystemResetWarning,0830.5,4.99,000.00,024.4,023.7,000.0,032.5,025.8,12.6,0000.0,0005.05,0011.95,0004.51
2023-12-16 19:55:00,SystemResetWarning,0830.4,4.99,000.00,024.4,023.7,000.0,032.5,025.8,12.5,0000.0,0005.14,0011.93,0004.56
2023-12-16 19:56:00,SystemResetWarning,0830.4,5.02,000.00,024.4,023.7,000.0,032.5,025.9,12.5,0000.0,0005.23,0011.83,0004.62
2023-12-16 19:57:00,SystemResetWarning,0830.4,4.99,000.00,024.5,023.8,000.0,032.5,025.9,12.4,0000.0,0005.27,0011.64,0004.69
2023-12-16 19:58:00,SystemResetWarning,0830.3,4.99,000.00,024.5,023.8,000.0,032.5,025.9,12.4,0000.0,0005.36,0011.55,0004.80
2023-12-16 19:59:00,SystemResetWarning,0830.3,5.01,000.00,024.5,023.8,000.0,032.6,025.9,12.5,0000.0,0005.49,0011.42,0004.93
